Weather in Konstantinovka

Ukraine / Kherson District     47°09′05″N   34°06′57″E
temp.,
°C
wind,
m/s
gust,
m/s
humid.,
%
clouds,
%
prec.,
mm/h
press.,
hPa
HPBL,
m
13 may, thu
thu1300:00+10sw237027 0.0 1012153
03:00+9sw227494 0.0 1012150
06:00+9w11760 0.0 1012128
09:00+12se226495 0.0 1013425
12:00+16se234463 0.0 1012700
15:00+19sse2347100 0.0 1011669
18:00+20se345333 0.0 1011644
21:00+16se5969100 0.0 1011196
14 may, fri
fri1400:00+14ese486743 0.0 1010190
03:00+14ese35830 0.0 1010130
06:00+13sse338928 0.0 1009120
09:00+17ssw4672100 0.1 1009373
12:00+20ssw6751100 0.0 1009540
15:00+21ssw7955100 0.0 1009590
18:00+20s6963100 0.0 1009396
21:00+16ssw59740 0.0 1011258
15 may, sat
sat1500:00+15ssw587737 0.0 1011182
03:00+14ssw58820 0.0 1012218
06:00+14sw478213 0.0 1013183
09:00+18sw4668100 0.0 1014309
12:00+21ssw5655100 0.0 1014664
15:00+22ssw455097 0.0 1013745
18:00+22ssw455221 0.0 1013526
21:00+19w3365100 0.0 101334
16 may, sun
sun1600:00+18n22661 0.0 101336
03:00+17n34690 0.0 101381
06:00+17nne567264 0.0 1012165
09:00+20ne5765100 0.0 1012353
12:00+22ne5760100 0.0 1011489
15:00+24ne5657100 0.0 1009713
18:00+23ne5763100 0.0 1008184
21:00+22ne61172100 0.4 1007201
17 may, mon
mon1700:00+20ne598199 0.4 1006177
03:00+18e348963 0.9 100585
06:00+19ne3485100 0.1 100498
09:00+20ne4575100 0.1 1004230
12:00+22wsw116533 0.0 1004500
15:00+22w226832 0.3 1004405
18:00+23w5870100 2.6 1004190
21:00+19wnw598870 6.5 1006255